Location: B?dargowo
(53.3916°N, 14.4413°E)
Time: 04:20:06
(UTC+00:00)

ATLAS 5 CENTAUR R/B - Pass Details

Date: 05 February 2023
Orbit: 460 x 1178 km, 63.3° (Epoch: 19 March)

Event Time Altitude Azimuth Distance (km) Brightness Sun altitude
Rises 17:49:04 0° 297° (WNW) 2,740 5.9 -17.5°
Reaches altitude 10° 17:51:27 10° 311° (NW) 1,937 4.7 -17.9°
Maximum altitude 17:55:05 25° 8° (N) 1,351 3.2 -18.4°
Enters shadow 17:56:37 21° 36° (NE) 1,542 3.2 -18.6°
